<?xml version="1.0"?>
<gpx xmlns="http://www.topografix.com/GPX/1/1" xmlns:xsi="http://www.w3.org/2001/XMLSchema-instance" version="1.1" creator="GPX RubyGem 1.0.0 -- http://dougfales.github.io/gpx/" xsi:schemaLocation="http://www.topografix.com/GPX/1/1 http://www.topografix.com/GPX/1/1/gpx.xsd">
  <metadata>
    <name/>
    <time>2026-05-10T21:27:51+00:00</time>
    <bound minlat="90.0" minlon="180.0" maxlat="-90.0" maxlon="-180.0"/>
  </metadata>
  <trk>
    <name/>
    <trkseg>
      <trkpt lat="59.480615" lon="18.014115">
        <time>1970-01-01T00:00:00+00:00</time>
        <ele>15.0</ele>
      </trkpt>
      <trkpt lat="59.480605" lon="18.014124">
        <time>1970-01-01T00:00:00+00:00</time>
        <ele>15.0</ele>
      </trkpt>
      <trkpt lat="59.480509" lon="18.013825">
        <time>1970-01-01T00:00:00+00:00</time>
        <ele>14.0</ele>
      </trkpt>
      <trkpt lat="59.480321" lon="18.013194">
        <time>1970-01-01T00:00:00+00:00</time>
        <ele>11.0</ele>
      </trkpt>
      <trkpt lat="59.480306" lon="18.013066">
        <time>1970-01-01T00:00:00+00:00</time>
        <ele>10.0</ele>
      </trkpt>
      <trkpt lat="59.480305" lon="18.01267">
        <time>1970-01-01T00:00:00+00:00</time>
        <ele>9.0</ele>
      </trkpt>
      <trkpt lat="59.480525" lon="18.0123">
        <time>1970-01-01T00:00:00+00:00</time>
        <ele>9.0</ele>
      </trkpt>
      <trkpt lat="59.480639" lon="18.012058">
        <time>1970-01-01T00:00:00+00:00</time>
        <ele>9.0</ele>
      </trkpt>
      <trkpt lat="59.480715" lon="18.011699">
        <time>1970-01-01T00:00:00+00:00</time>
        <ele>10.0</ele>
      </trkpt>
      <trkpt lat="59.481048" lon="18.010722">
        <time>1970-01-01T00:00:00+00:00</time>
        <ele>10.0</ele>
      </trkpt>
      <trkpt lat="59.480846" lon="18.01062">
        <time>1970-01-01T00:00:00+00:00</time>
        <ele>10.0</ele>
      </trkpt>
      <trkpt lat="59.480607" lon="18.010422">
        <time>1970-01-01T00:00:00+00:00</time>
        <ele>13.0</ele>
      </trkpt>
      <trkpt lat="59.480399" lon="18.010116">
        <time>1970-01-01T00:00:00+00:00</time>
        <ele>16.0</ele>
      </trkpt>
      <trkpt lat="59.480488" lon="18.009789">
        <time>1970-01-01T00:00:00+00:00</time>
        <ele>17.0</ele>
      </trkpt>
      <trkpt lat="59.480582" lon="18.009183">
        <time>1970-01-01T00:00:00+00:00</time>
        <ele>19.0</ele>
      </trkpt>
      <trkpt lat="59.480677" lon="18.008759">
        <time>1970-01-01T00:00:00+00:00</time>
        <ele>20.0</ele>
      </trkpt>
      <trkpt lat="59.480756" lon="18.008614">
        <time>1970-01-01T00:00:00+00:00</time>
        <ele>21.0</ele>
      </trkpt>
      <trkpt lat="59.48095" lon="18.008405">
        <time>1970-01-01T00:00:00+00:00</time>
        <ele>23.0</ele>
      </trkpt>
      <trkpt lat="59.481081" lon="18.008206">
        <time>1970-01-01T00:00:00+00:00</time>
        <ele>24.0</ele>
      </trkpt>
      <trkpt lat="59.481149" lon="18.007981">
        <time>1970-01-01T00:00:00+00:00</time>
        <ele>25.0</ele>
      </trkpt>
      <trkpt lat="59.481195" lon="18.00744">
        <time>1970-01-01T00:00:00+00:00</time>
        <ele>26.0</ele>
      </trkpt>
      <trkpt lat="59.48126" lon="18.007126">
        <time>1970-01-01T00:00:00+00:00</time>
        <ele>29.0</ele>
      </trkpt>
      <trkpt lat="59.481068" lon="18.006916">
        <time>1970-01-01T00:00:00+00:00</time>
        <ele>32.0</ele>
      </trkpt>
      <trkpt lat="59.481041" lon="18.006815">
        <time>1970-01-01T00:00:00+00:00</time>
        <ele>32.0</ele>
      </trkpt>
      <trkpt lat="59.481041" lon="18.006815">
        <time>1970-01-01T00:00:00+00:00</time>
        <ele>32.0</ele>
      </trkpt>
      <trkpt lat="59.481068" lon="18.006916">
        <time>1970-01-01T00:00:00+00:00</time>
        <ele>32.0</ele>
      </trkpt>
      <trkpt lat="59.48126" lon="18.007126">
        <time>1970-01-01T00:00:00+00:00</time>
        <ele>29.0</ele>
      </trkpt>
      <trkpt lat="59.481195" lon="18.00744">
        <time>1970-01-01T00:00:00+00:00</time>
        <ele>26.0</ele>
      </trkpt>
      <trkpt lat="59.481149" lon="18.007981">
        <time>1970-01-01T00:00:00+00:00</time>
        <ele>25.0</ele>
      </trkpt>
      <trkpt lat="59.481081" lon="18.008206">
        <time>1970-01-01T00:00:00+00:00</time>
        <ele>24.0</ele>
      </trkpt>
      <trkpt lat="59.48095" lon="18.008405">
        <time>1970-01-01T00:00:00+00:00</time>
        <ele>23.0</ele>
      </trkpt>
      <trkpt lat="59.480756" lon="18.008614">
        <time>1970-01-01T00:00:00+00:00</time>
        <ele>21.0</ele>
      </trkpt>
      <trkpt lat="59.480677" lon="18.008759">
        <time>1970-01-01T00:00:00+00:00</time>
        <ele>20.0</ele>
      </trkpt>
      <trkpt lat="59.480582" lon="18.009183">
        <time>1970-01-01T00:00:00+00:00</time>
        <ele>19.0</ele>
      </trkpt>
      <trkpt lat="59.480488" lon="18.009789">
        <time>1970-01-01T00:00:00+00:00</time>
        <ele>17.0</ele>
      </trkpt>
      <trkpt lat="59.480399" lon="18.010116">
        <time>1970-01-01T00:00:00+00:00</time>
        <ele>16.0</ele>
      </trkpt>
      <trkpt lat="59.480607" lon="18.010422">
        <time>1970-01-01T00:00:00+00:00</time>
        <ele>13.0</ele>
      </trkpt>
      <trkpt lat="59.480846" lon="18.01062">
        <time>1970-01-01T00:00:00+00:00</time>
        <ele>10.0</ele>
      </trkpt>
      <trkpt lat="59.481048" lon="18.010722">
        <time>1970-01-01T00:00:00+00:00</time>
        <ele>10.0</ele>
      </trkpt>
      <trkpt lat="59.480715" lon="18.011699">
        <time>1970-01-01T00:00:00+00:00</time>
        <ele>10.0</ele>
      </trkpt>
      <trkpt lat="59.480639" lon="18.012058">
        <time>1970-01-01T00:00:00+00:00</time>
        <ele>9.0</ele>
      </trkpt>
      <trkpt lat="59.480525" lon="18.0123">
        <time>1970-01-01T00:00:00+00:00</time>
        <ele>9.0</ele>
      </trkpt>
      <trkpt lat="59.480305" lon="18.01267">
        <time>1970-01-01T00:00:00+00:00</time>
        <ele>9.0</ele>
      </trkpt>
      <trkpt lat="59.480306" lon="18.013066">
        <time>1970-01-01T00:00:00+00:00</time>
        <ele>10.0</ele>
      </trkpt>
      <trkpt lat="59.480321" lon="18.013194">
        <time>1970-01-01T00:00:00+00:00</time>
        <ele>11.0</ele>
      </trkpt>
      <trkpt lat="59.480509" lon="18.013825">
        <time>1970-01-01T00:00:00+00:00</time>
        <ele>14.0</ele>
      </trkpt>
      <trkpt lat="59.480605" lon="18.014124">
        <time>1970-01-01T00:00:00+00:00</time>
        <ele>15.0</ele>
      </trkpt>
      <trkpt lat="59.480615" lon="18.014115">
        <time>1970-01-01T00:00:00+00:00</time>
        <ele>15.0</ele>
      </trkpt>
    </trkseg>
  </trk>
</gpx>
